This demonstration page uses our WeatherBlox Daily Observations layout. Learn more.

Left ArrowRight Arrow

Hourly Observations for June 9, 2015

Temp ( °F °C ) Dew Point ( °F °C ) Humidity (%) Winds ( mph kmh ) Pressure ( in mb ) Visibility ( mi km ) Precip ( " mm )
12:59 am 00:59 Cloudy 79 26.1 65 18.3 62 62 WSW 5 7 29.92 1013 10 16 0.00 0.03
1:59 am 01:59 Partly Cloudy 79 26.1 67 19.4 67 67 SSW 9 15 29.88 1012 10 16 0.00 0.00
2:59 am 02:59 Partly Cloudy 78 25.6 68 20 71 71 SSW 10 17 29.87 1012 10 16 0.00 0.00
3:59 am 03:59 Cloudy with Light Rain 75 23.9 67 19.4 76 76 W 9 15 29.90 1013 10 16 0.00 0.03
4:42 am 04:42 Cloudy with Heavy Rain 74 23.3 67 19.4 79 79 WSW 5 7 29.88 1012 2 3 0.06 1.52
4:45 am 04:45 Cloudy with Heavy Rain 74 23.3 67 19.4 79 79 SSW 6 9 29.88 1012 1 2 0.08 2.03
4:48 am 04:48 Cloudy with Rain 74 23.3 68 20 82 82 SW 6 9 29.88 1012 3 5 0.08 2.03
4:59 am 04:59 Mostly Cloudy with Rain 74 23.3 67 19.4 79 79 SW 7 11 29.88 1012 3 5 0.10 2.54
5:50 am 05:50 Cloudy with Heavy Rain 74 23.3 68 20 82 82 SSE 8 13 29.85 1011 2 3 0.11 2.79
5:59 am 05:59 Cloudy with Heavy Rain 74 23.3 68 20 82 82 SSE 8 13 29.86 1011 2 3 0.18 4.57
6:12 am 06:12 Cloudy with Light Rain 74 23.3 68 20 82 82 SE 5 7 29.85 1011 5 8 0.00 0.03
6:59 am 06:59 Cloudy 76 24.4 69 20.6 79 79 SSE 5 7 29.85 1011 7 11 0.05 1.27
7:48 am 07:48 Cloudy 77 25 70 21.1 79 79 SSW 7 11 29.85 1011 9 14 0.00 0.00
7:59 am 07:59 Cloudy 77 25 70 21.1 79 79 SSW 8 13 29.85 1011 9 14 0.00 0.00
8:42 am 08:42 Mostly Cloudy 78 25.6 69 20.6 74 74 SSW 9 15 29.85 1011 10 16 0.00 0.00
8:59 am 08:59 Mostly Cloudy 78 25.6 69 20.6 74 74 SW 15 24 29.85 1011 10 16 0.00 0.00
9:11 am 09:11 Mostly Cloudy 79 26.1 69 20.6 72 72 WSW 12 19 29.85 1011 10 16 0.00 0.00
9:47 am 09:47 Mostly Cloudy 80 26.7 69 20.6 69 69 SW 9 15 29.83 1010 10 16 0.00 0.00
9:59 am 09:59 Mostly Cloudy 81 27.2 69 20.6 67 67 WSW 9 15 29.85 1011 10 16 0.00 0.00
10:59 am 10:59 Mostly Cloudy 83 28.3 68 20 61 61 WSW 9 15 29.83 1010 10 16 0.00 0.00
11:59 am 11:59 Mostly Cloudy 85 29.4 68 20 57 57 WSW 12 19 29.83 1010 10 16 0.00 0.00
12:59 pm 12:59 Mostly Cloudy 88 31.1 69 20.6 54 54 WSW 10 17 29.82 1010 10 16 0.00 0.00
1:59 pm 13:59 Mostly Cloudy 88 31.1 68 20 52 52 SW 12 19 29.81 1010 10 16 0.00 0.00
2:59 pm 14:59 Mostly Cloudy 88 31.1 68 20 52 52 WSW 9 15 29.80 1009 10 16 0.00 0.00
3:59 pm 15:59 Mostly Cloudy 89 31.7 68 20 50 50 SSW 10 17 29.79 1009 10 16 0.00 0.00
4:59 pm 16:59 Mostly Cloudy 90 32.2 68 20 48 48 SSW 9 15 29.79 1009 10 16 0.00 0.00
5:59 pm 17:59 Mostly Cloudy 90 32.2 67 19.4 47 47 W 5 7 29.78 1008 10 16 0.00 0.00
6:59 pm 18:59 Mostly Cloudy 88 31.1 66 18.9 48 48 W 8 13 29.80 1009 10 16 0.00 0.00
7:59 pm 19:59 Mostly Cloudy 87 30.6 67 19.4 51 51 W 6 9 29.80 1009 10 16 0.00 0.00
8:59 pm 20:59 Mostly Cloudy 85 29.4 70 21.1 61 61 W 3 6 29.81 1010 10 16 0.00 0.00
9:59 pm 21:59 Mostly Cloudy 83 28.3 71 21.7 67 67 WSW 5 7 29.85 1011 10 16 0.00 0.00
10:59 pm 22:59 Mostly Cloudy 82 27.8 72 22.2 72 72 SSW 7 11 29.85 1011 9 14 0.00 0.00
11:59 pm 23:59 Mostly Cloudy 81 27.2 70 21.1 69 69 SSW 7 11 29.86 1011 10 16 0.00 0.00

Powered by AerisWeather